Other Public Products
Issued by NWS Charleston, SC

Current Version | Previous Version | Graphics & Text | Print | Product List | Glossary On
Versions: 1 2 3 4 5 6 7 8 9 10 11 12 13 14 15 16 17 18 19 20 21 22 23 24 25 26 27 28 29 30 31 32 33 34 35 36 37 38 39 40 41 42 43 44 45 46 47 48 49 50
000
FPUS82 KCHS 232127
OPUCHS

TEST...KCHS/KSAV Gateway Observations...TEST
National Weather Service Charleston SC
500 PM EDT FRI JUN 23 2017

NOTE: "fair" indicates few or no clouds below 12,000 feet with no
significant weather and/or obstructions to visibility.

SCZ050-WAZ558-NCZ071-TXZ119-213-PAZ071-DCZ001-FLZ074-172-MI076-
NYZ176-178-MAZ016-IL014-TNZ027-NJZ106-GAZ044-MD014-232200-

...Gateway Observations for Charleston International...

CITY           SKY/WX    TMP DP  RH WIND       PRES   REMARKS
Chas Airport   PTSUNNY   87  75  67 S16       29.97F HX  96
Seattle        SUNNY     79  51  37 NW12      30.18F
Charlotte      MOSUNNY   88  68  51 SW17G25   29.91F HX  91
Dallas DFW     MOSUNNY   99  74  44 NE8       29.79S HX 110
Dallas Love    MOSUNNY   97  72  44 CALM      29.79S HX 105
Philladelphia  PTSUNNY   89  72  56 SW17      29.69F HX  96
Wash National  CLOUDY    84  77  79 S14       29.72F HX  94
Baltimore      LGT RAIN  84  73  69 SW16G23   29.70F HX  90
Miami          MOSUNNY   88  73  61 SE17      30.02S HX  95
Detroit        CLOUDY    77  67  71 W10       29.62R
Newark         PTSUNNY   87  72  60 SW16G25   29.65F HX  93
Laguardia      PTSUNNY   85  72  65 SW13      29.65F HX  91
J F K          PTSUNNY   75  70  84 S16       29.68F
Boston Logan   PTSUNNY   85  65  51 S17       29.62F
Ft. Lauderdale MOSUNNY   86  74  67 E16       30.01F HX  94
Chicago O`Hare PTSUNNY   82  46  28 NW18      29.71R
Chicago Midway PTSUNNY   82  47  29 W9        29.71S
Houston Bush   PTSUNNY   96  74  48 SE6       29.82F HX 107
Houston Hobby  MOSUNNY   92  76  59 S16       29.82F HX 104
Nashville      LGT RAIN  78  73  84 SW18G25   29.70S
Atlanta        MOSUNNY   87  69  54 S20G30    29.93F HX  91

$$

GAZ044-118-TXZ119-213-NCZ071-DCZ001-MDZ014-506-PAZ021-071-NJZ106-
NYZ176-178-MAZ106-OHZ011-021-055-MIZ076-KYZ091-ILZ014-INZ047-
MNZ060-ONZ431-232200-

...Gateway Observations for Savannah International...

CITY           SKY/WX    TMP DP  RH WIND       PRES   REMARKS
Savannah Arpt  PTSUNNY   92  75  57 S16       29.96F HX 103
Atlanta        MOSUNNY   87  69  54 S20G30    29.93F HX  91
Charlotte      MOSUNNY   88  68  51 SW17G25   29.91F HX  91
Dallas DFW     MOSUNNY   99  74  44 NE8       29.79S HX 110
Houston Bush   PTSUNNY   96  74  48 SE6       29.82F HX 107
Wash National  CLOUDY    84  77  79 S14       29.72F HX  94
Wash Dulles    CLOUDY    82  73  74 S14G24    29.72F
Baltimore      LGT RAIN  84  73  69 SW16G23   29.70F HX  90
Philadelphia   PTSUNNY   89  72  56 SW17      29.69F HX  96
Newark         PTSUNNY   87  72  60 SW16G25   29.65F HX  93
Laguardia      PTSUNNY   85  72  65 SW13      29.65F HX  91
J F K          PTSUNNY   75  70  84 S16       29.68F
Boston         PTSUNNY   85  65  51 S17       29.62F
Pittsburg      LGT RAIN  72  70  93 W8        29.67F FOG
Akron          CLOUDY    71  66  84 SW12      29.67R
Cleveland      CLOUDY    76  70  82 SW10      29.65S
Cincinnati     LGT RAIN  69  68  96 CALM      29.71F FOG
Columbus       RAIN      67  68 100 SW7       29.70S
Detroit        CLOUDY    77  67  71 W10       29.62R
Chicago O`Hare PTSUNNY   82  46  28 NW18      29.71R
Minneapolis    PTSUNNY   72  50  45 NW15G28   29.80S
Indianapolis   CLOUDY    72  70  93 NW8       29.70F
Toronto Canada PTSUNNY   77  68  73 W12       29.52F

$$




USA.gov is the U.S. government's official web portal to all federal, state and local government web resources and services.